sat.trackr.live / text

‹ back to catalog

RIGIDSPHERE 2 (LCS 4)

NORAD 5398 · 1971-067E

PAYLOAD ACTIVE UNKNOWN

§ Identity

Operator
Country
US
Launch date
1971-08-07
Launch site
AFWTR
Launch vehicle
Mass (kg)
RCS (m²)
0.95

Purposes: military

External: N2YO · Heavens-Above · Gunter

§ Orbital elements

Epoch: 2026-05-25T03:45:34.229952Z

Period
100.15 min
Inclination
87.6216°
Eccentricity
0.0058150
Mean motion
14.37839051 rev/d
Perigee alt
724.1 km
Apogee alt
807.2 km
Semi-major
7,143.8 km
B*
1.5714e-4
RAAN
345.2091°
Arg perigee
310.8506°
Mean anomaly
48.7660°
Rev number
87,057

§ Raw data

RIGIDSPHERE 2 (LCS 4)1 05398U 71067E   26145.15664618  .00000500  00000+0  15714-3 0  99962 05398  87.6216 345.2091 0058150 310.8506  48.7660 14.37839051870572

JSON: /api/v1/satellites/5398 · /tle

For live sub-satellite position, see the globe view (requires WebGL).

§ Visibility from observer

Set your observer location to see the next 7 days of passes ≥ 10°. The values pass through the URL so the page stays shareable.

No JS? Fill the form by hand. The geolocation button needs JavaScript.